DW4604 Weather Reports


Display with metric or nautical units.
time (UTC)temp
F
wind
direction
speed
MPH
gust
MPH
rain 1hr
in
rain 24hr
in
rain mn
in
humidity
%
barometer
mb
20260509054940 51 0 0.0 0.0 0.00 0.04 0.00 84 1018.4
20260509054441 51 0 0.0 0.0 0.00 0.04 0.00 84 1018.3
20260509053940 51 0 0.0 0.0 0.00 0.04 0.00 85 1018.3
20260509053440 51 0 0.0 0.0 0.00 0.04 0.00 86 1018.3
20260509052941 51 0 0.0 0.0 0.00 0.04 0.00 86 1018.3
20260509052440 50 0 0.0 0.0 0.00 0.04 0.00 87 1018.3
20260509051940 50 0 0.0 0.0 0.00 0.04 0.00 88 1018.3
20260509051440 50 0 0.0 0.0 0.00 0.04 0.00 88 1018.4
20260509050940 49 0 0.0 0.0 0.00 0.04 0.00 89 1018.3
20260509050441 49 0 0.0 0.0 0.00 0.04 0.00 89 1018.3
20260509045940 49 0 0.0 0.0 0.00 0.04 0.00 89 1018.4
20260509045440 49 0 0.0 0.0 0.00 0.04 0.00 89 1018.3
20260509044941 48 0 0.0 0.0 0.00 0.04 0.00 89 1018.3
20260509044440 49 0 0.0 0.0 0.00 0.04 0.00 90 1018.3
20260509043440 48 0 0.0 0.0 0.00 0.04 0.00 90 1018.2
20260509042942 48 0 0.0 0.0 0.00 0.04 0.00 91 1018.2
20260509041941 48 0 0.0 0.0 0.00 0.04 0.00 91 1018.2
20260509041442 48 0 0.0 0.0 0.00 0.04 0.00 91 1018.2
20260509040942 47 0 0.0 0.0 0.00 0.05 0.00 91 1018.2
20260509040440 47 0 0.0 0.0 0.00 0.05 0.00 92 1018.2
20260509035940 47 0 0.0 0.0 0.00 0.05 0.00 92 1018.1
20260509035440 47 0 0.0 0.0 0.00 0.05 0.00 92 1018.2
20260509034940 47 0 0.0 0.0 0.00 0.05 0.00 92 1018.1
20260509033940 47 0 0.0 0.0 0.00 0.05 0.00 92 1018.1
20260509033441 47 0 0.0 0.0 0.00 0.05 0.00 92 1018.1
20260509032941 47 0 0.0 0.0 0.00 0.05 0.00 92 1018.1
20260509032441 47 0 0.0 0.0 0.00 0.05 0.00 92 1018.2
20260509031441 47 0 0.0 0.0 0.00 0.05 0.00 92 1018.1
20260509030940 47 0 0.0 0.0 0.00 0.05 0.00 92 1018.1
20260509030440 47 0 0.0 0.0 0.00 0.05 0.00 91 1018.1
20260509025941 47 0 0.0 0.0 0.00 0.06 0.00 91 1018.1
20260509025442 47 0 0.0 0.0 0.00 0.06 0.00 91 1018.0
20260509024440 48 0 0.0 0.0 0.00 0.06 0.00 91 1018.0
20260509023940 48 0 0.0 0.0 0.00 0.06 0.00 91 1018.0
20260509023442 48 0 0.0 0.0 0.00 0.06 0.00 91 1018.0
20260509022941 48 0 0.0 0.0 0.00 0.06 0.00 91 1018.1
20260509020941 48 0 0.0 0.0 0.00 0.07 0.00 91 1018.1
20260509020440 48 0 0.0 0.0 0.00 0.08 0.00 90 1018.0
20260509015941 48 0 0.0 0.0 0.00 0.08 0.00 91 1018.0
20260509014442 48 0 0.0 0.0 0.00 0.10 0.00 90 1018.0
20260509013442 48 0 0.0 0.0 0.00 0.13 0.00 90 1018.1
20260509012442 48 0 0.0 0.0 0.00 0.17 0.00 90 1018.0
20260509011941 48 0 0.0 0.0 0.00 0.18 0.00 90 1018.1
20260509011441 48 0 0.0 0.0 0.00 0.20 0.00 90 1018.1
20260509010941 48 0 0.0 0.0 0.00 0.21 0.00 90 1018.0
20260509010441 48 0 0.0 0.0 0.00 0.24 0.00 90 1018.0
20260509004942 48 0 0.0 0.0 0.00 0.31 0.00 90 1018.2
20260509004441 48 0 0.0 0.0 0.00 0.34 0.00 90 1018.2
20260509003942 48 0 0.0 0.0 0.00 0.35 0.00 90 1018.2
20260509003441 48 0 0.0 0.0 0.00 0.37 0.00 90 1018.2
20260509002943 48 0 0.0 0.0 0.00 0.38 0.00 90 1018.3
20260509002441 48 0 0.0 0.0 0.00 0.39 0.00 91 1018.3
20260509001941 48 0 0.0 0.0 0.00 0.39 0.00 91 1018.4
20260509001441 48 0 0.0 0.0 0.00 0.39 0.00 90 1018.4
20260509000942 48 0 0.0 0.0 0.00 0.39 0.00 91 1018.4
20260509000441 49 0 0.0 0.0 0.00 0.39 0.00 91 1018.5
20260508235941 49 0 0.0 0.0 0.00 0.40 0.00 90 1018.5
20260508235442 49 0 0.0 0.0 0.00 0.44 0.00 90 1018.5
20260508234441 49 0 0.0 0.0 0.00 0.48 0.00 90 1018.5
20260508233941 49 0 0.0 0.0 0.00 0.48 0.00 90 1018.5
20260508233442 49 0 0.0 0.0 0.00 0.48 0.00 90 1018.5
20260508232941 49 0 0.0 0.0 0.00 0.48 0.00 90 1018.5
20260508232442 49 0 0.0 0.0 0.00 0.48 0.00 89 1018.5
20260508231942 49 0 0.0 0.0 0.00 0.48 0.00 90 1018.6
20260508231442 49 0 0.0 0.0 0.00 0.48 0.00 90 1018.6
20260508230941 49 0 0.0 0.0 0.00 0.48 0.00 89 1018.5
20260508225942 49 0 0.0 0.0 0.00 0.48 0.00 89 1018.6
20260508225442 49 0 0.0 0.0 0.00 0.48 0.00 89 1018.6
20260508224943 49 0 0.0 0.0 0.00 0.48 0.00 89 1018.6
20260508224442 49 0 0.0 0.0 0.00 0.48 0.00 89 1018.6
20260508223943 49 0 0.0 0.0 0.00 0.48 0.00 89 1018.6
20260508223442 49 0 0.0 0.0 0.00 0.48 0.00 88 1018.6
20260508222942 49 0 0.0 0.0 0.00 0.48 0.00 88 1018.6
20260508222443 49 0 0.0 0.0 0.00 0.48 0.00 88 1018.6
20260508221942 49 0 0.0 0.0 0.00 0.48 0.00 88 1018.5
20260508221442 49 0 0.0 0.0 0.00 0.48 0.00 88 1018.5
20260508220942 50 0 0.0 0.0 0.00 0.48 0.00 88 1018.4
20260508220441 49 0 0.0 0.0 0.00 0.48 0.00 88 1018.4
20260508215943 49 0 0.0 0.0 0.00 0.48 0.00 88 1018.4
20260508215443 49 0 0.0 0.0 0.00 0.48 0.48 87 1018.3
20260508214942 50 0 0.0 0.0 0.00 0.48 0.48 87 1018.4
20260508214442 50 0 0.0 0.0 0.00 0.48 0.48 87 1018.4
20260508213442 50 0 0.0 0.0 0.00 0.48 0.48 87 1018.4
20260508212442 50 0 0.0 0.0 0.00 0.48 0.48 87 1018.4
20260508211943 50 0 0.0 0.0 0.00 0.48 0.48 87 1018.4
20260508211443 50 0 0.0 0.0 0.00 0.48 0.48 87 1018.3
20260508210941 50 0 0.0 0.0 0.00 0.48 0.48 87 1018.3
20260508210441 50 0 0.0 0.0 0.00 0.48 0.48 87 1018.2
20260508205942 50 0 0.0 0.0 0.00 0.48 0.48 87 1018.2
20260508205442 50 0 0.0 0.0 0.00 0.48 0.48 87 1018.3
20260508204943 50 0 0.0 0.0 0.00 0.48 0.48 87 1018.2
20260508203942 50 0 0.0 0.0 0.00 0.48 0.48 87 1018.2
20260508203442 51 0 0.0 0.0 0.00 0.48 0.48 87 1018.1
20260508202943 51 0 0.0 0.0 0.00 0.48 0.48 87 1018.1
20260508202443 51 0 0.0 0.0 0.00 0.49 0.48 87 1018.1
20260508201943 51 0 0.0 0.0 0.00 0.49 0.48 87 1018.1
20260508201442 51 0 0.0 0.0 0.00 0.49 0.48 87 1018.0
20260508200943 51 0 0.0 0.0 0.00 0.49 0.48 87 1017.8
20260508195943 51 0 0.0 0.0 0.00 0.49 0.48 86 1017.8
20260508195442 51 0 0.0 0.0 0.00 0.49 0.48 86 1017.8
20260508194942 51 0 0.0 0.0 0.00 0.49 0.48 87 1017.9
20260508192443 51 0 0.0 0.0 0.00 0.49 0.48 88 1017.9
20260508191942 51 0 0.0 0.0 0.00 0.49 0.48 88 1017.8
20260508191443 51 0 0.0 0.0 0.00 0.49 0.48 88 1017.8
20260508190943 52 0 0.0 0.0 0.00 0.49 0.48 88 1017.8
20260508190442 52 0 0.0 0.0 0.00 0.49 0.48 87 1017.8
20260508185943 52 0 0.0 0.0 0.00 0.49 0.48 87 1017.7
20260508185443 52 0 0.0 0.0 0.00 0.49 0.48 87 1017.7
20260508183442 52 0 0.0 0.0 0.00 0.50 0.48 86 1017.5
20260508182942 52 0 0.0 0.0 0.00 0.52 0.48 86 1017.4
20260508182442 52 0 0.0 0.0 0.00 0.54 0.48 86 1017.3
20260508181943 52 0 0.0 0.0 0.00 0.60 0.48 86 1017.3
20260508181443 52 0 0.0 0.0 0.00 0.64 0.48 86 1017.3
20260508180443 53 0 0.0 0.0 0.00 0.69 0.48 87 1017.1
20260508175943 53 0 0.0 0.0 0.00 0.69 0.48 86 1017.1
20260508173943 53 0 0.0 0.0 0.00 0.70 0.48 87 1016.9
20260508173443 54 0 0.0 0.0 0.00 0.70 0.48 86 1016.9
20260508172443 54 0 0.0 0.0 0.00 0.71 0.48 85 1016.8
20260508171943 54 0 0.0 0.0 0.00 0.72 0.48 85 1016.7
20260508170943 54 0 0.0 0.0 0.00 0.83 0.48 84 1016.7
20260508170443 54 0 0.0 0.0 0.00 0.87 0.48 84 1016.8
20260508165942 54 0 0.0 0.0 0.00 0.87 0.48 84 1016.8
20260508165442 54 0 0.0 0.0 0.00 0.87 0.48 84 1016.7
20260508164943 54 0 0.0 0.0 0.00 0.87 0.48 82 1016.7
20260508164443 54 0 0.0 0.0 0.00 0.87 0.48 82 1016.8
20260508163443 54 0 0.0 0.0 0.00 0.87 0.48 82 1016.7
20260508162942 55 0 0.0 0.0 0.00 0.87 0.48 84 1016.7
20260508162444 55 0 0.0 0.0 0.00 0.87 0.48 82 1016.7
20260508161943 55 0 0.0 0.0 0.00 0.87 0.48 82 1016.6
20260508160943 55 0 0.0 0.0 0.00 0.87 0.48 81 1016.7
20260508160443 55 0 0.0 0.0 0.00 0.87 0.48 81 1016.6
20260508155944 55 0 0.0 0.0 0.00 0.87 0.48 80 1016.7
20260508155443 55 0 0.0 0.0 0.00 0.87 0.48 81 1016.7
20260508154943 55 0 0.0 0.0 0.00 0.87 0.48 81 1016.8
20260508154443 55 0 0.0 0.0 0.00 0.87 0.48 80 1016.8
20260508152943 56 0 0.0 0.0 0.00 0.87 0.48 79 1016.8
20260508152443 55 0 0.0 0.0 0.00 0.87 0.48 81 1016.8
20260508151943 55 0 0.0 0.0 0.00 0.87 0.48 81 1016.8
20260508151442 54 0 0.0 0.0 0.00 0.87 0.48 81 1016.8
20260508150443 55 0 0.0 0.0 0.00 0.87 0.48 82 1016.7
20260508145943 55 0 0.0 0.0 0.00 0.87 0.48 83 1016.7
20260508145443 55 0 0.0 0.0 0.00 0.87 0.48 81 1016.7
20260508144943 55 0 0.0 0.0 0.00 0.87 0.48 82 1016.7
20260508143443 55 0 0.0 0.0 0.00 0.87 0.48 83 1016.7
20260508142943 54 0 0.0 0.0 0.00 0.87 0.48 83 1016.8
20260508142444 54 0 0.0 0.0 0.00 0.87 0.48 84 1016.7
20260508141943 53 0 0.0 0.0 0.00 0.87 0.48 84 1016.8
20260508141443 54 0 0.0 0.0 0.00 0.87 0.48 84 1016.8
20260508140945 54 0 0.0 0.0 0.00 0.87 0.48 84 1016.7
20260508140443 54 0 0.0 0.0 0.00 0.87 0.48 84 1016.6
20260508135943 54 0 0.0 0.0 0.00 0.87 0.48 83 1016.7
20260508134943 54 0 0.0 0.0 0.00 0.87 0.48 85 1016.7
20260508134443 54 0 0.0 0.0 0.00 0.87 0.48 85 1016.7
20260508133944 54 0 0.0 0.0 0.00 0.87 0.48 85 1016.6
20260508133444 53 0 0.0 0.0 0.00 0.87 0.48 85 1016.7
20260508132943 53 0 0.0 0.0 0.00 0.87 0.48 86 1016.7
20260508132445 53 0 0.0 0.0 0.00 0.87 0.48 86 1016.7
20260508131943 53 0 0.0 0.0 0.00 0.87 0.48 86 1016.9
20260508131443 53 0 0.0 0.0 0.00 0.87 0.48 85 1016.9
20260508130944 54 0 0.0 0.0 0.00 0.87 0.48 86 1016.9
20260508130444 53 0 0.0 0.0 0.00 0.87 0.48 86 1016.8
20260508125943 53 0 0.0 0.0 0.00 0.87 0.48 87 1016.8
20260508125443 53 0 0.0 0.0 0.00 0.87 0.48 86 1016.9
20260508124943 53 0 0.0 0.0 0.00 0.87 0.48 86 1016.9
20260508123944 53 0 0.0 0.0 0.00 0.87 0.48 88 1016.9
20260508123444 53 0 0.0 0.0 0.00 0.87 0.48 88 1016.9
20260508122943 53 0 0.0 0.0 0.00 0.87 0.48 88 1016.9
20260508122444 54 0 0.0 0.0 0.00 0.87 0.48 88 1016.9
20260508121945 53 0 0.0 0.0 0.00 0.87 0.48 88 1016.9
20260508120943 52 0 0.0 0.0 0.00 0.87 0.48 89 1017.0
20260508115944 53 0 0.0 0.0 0.00 0.87 0.48 90 1017.0
20260508114944 52 0 0.0 0.0 0.00 0.87 0.48 90 1016.9
20260508113944 52 0 0.0 0.0 0.00 0.87 0.48 90 1016.9
20260508113444 52 0 0.0 0.0 0.00 0.87 0.48 91 1017.0
20260508112944 52 0 0.0 0.0 0.00 0.87 0.48 91 1016.9
20260508112444 52 0 0.0 0.0 0.00 0.87 0.48 91 1016.8
20260508110943 52 0 0.0 0.0 0.00 0.87 0.48 91 1016.7
20260508110443 52 0 0.0 0.0 0.00 0.87 0.48 90 1016.7
20260508105944 52 0 0.0 0.0 0.00 0.87 0.48 90 1016.7
20260508105444 52 0 0.0 0.0 0.00 0.87 0.48 91 1016.7
20260508104943 53 0 0.0 0.0 0.00 0.87 0.48 91 1016.7
20260508104444 53 0 0.0 0.0 0.00 0.87 0.48 91 1016.6
20260508103945 53 0 0.0 0.0 0.00 0.87 0.48 91 1016.6
20260508103444 53 0 0.0 0.0 0.00 0.87 0.48 92 1016.6
20260508102944 53 0 0.0 0.0 0.00 0.87 0.48 93 1016.6
20260508102445 53 0 0.0 0.0 0.00 0.87 0.48 92 1016.5
20260508101944 53 0 0.0 0.0 0.00 0.87 0.48 93 1016.5
20260508101444 53 0 0.0 0.0 0.00 0.87 0.48 93 1016.6
20260508100944 52 0 0.0 0.0 0.00 0.87 0.48 93 1016.5
20260508100444 52 0 0.0 0.0 0.00 0.87 0.48 93 1016.5
20260508095945 52 0 0.0 0.0 0.00 0.87 0.48 93 1016.6
20260508095444 53 0 0.0 0.0 0.00 0.87 0.48 94 1016.6
20260508094944 53 0 0.0 0.0 0.00 0.87 0.48 94 1016.6
20260508094444 52 0 0.0 0.0 0.00 0.87 0.48 94 1016.6
20260508093944 52 0 0.0 0.0 0.00 0.87 0.48 94 1016.6
20260508093444 52 0 0.0 0.0 0.00 0.87 0.48 94 1016.6
20260508092945 52 0 0.0 0.0 0.00 0.87 0.48 95 1016.7
20260508092446 51 0 0.0 0.0 0.00 0.87 0.48 94 1016.6
20260508091944 51 0 0.0 0.0 0.00 0.87 0.48 95 1016.6
20260508091444 51 0 0.0 0.0 0.00 0.87 0.48 95 1016.6
20260508090944 51 0 0.0 0.0 0.00 0.87 0.48 95 1016.6
20260508090445 51 0 0.0 0.0 0.00 0.87 0.48 95 1016.6
20260508084944 51 0 0.0 0.0 0.00 0.87 0.48 95 1016.5
20260508084444 51 0 0.0 0.0 0.00 0.87 0.48 95 1016.5
20260508083944 50 0 0.0 0.0 0.00 0.87 0.48 95 1016.5
20260508083445 50 0 0.0 0.0 0.00 0.87 0.48 95 1016.5
20260508082445 50 0 0.0 0.0 0.00 0.87 0.48 95 1016.4
20260508081945 50 0 0.0 0.0 0.00 0.87 0.48 95 1016.4
20260508081444 50 0 0.0 0.0 0.00 0.87 0.48 95 1016.3
20260508080944 50 0 0.0 0.0 0.00 0.87 0.48 95 1016.2
20260508075444 50 0 0.0 0.0 0.00 0.87 0.48 95 1016.0
20260508074946 50 0 0.0 0.0 0.00 0.87 0.48 95 1015.9
20260508074445 50 0 0.0 0.0 0.00 0.87 0.48 95 1015.9
20260508073444 50 0 0.0 0.0 0.00 0.87 0.48 95 1015.7
20260508072944 50 0 0.0 0.0 0.01 0.87 0.48 95 1015.8
20260508072445 50 0 0.0 0.0 0.01 0.87 0.48 95 1015.8
20260508071444 50 0 0.0 0.0 0.02 0.87 0.48 95 1015.7
20260508070945 50 0 0.0 0.0 0.02 0.87 0.48 95 1015.6
20260508065946 50 0 0.0 0.0 0.04 0.87 0.48 95 1015.6
20260508065446 50 0 0.0 0.0 0.04 0.87 0.48 95 1015.4
20260508064445 50 0 0.0 0.0 0.04 0.87 0.48 95 1015.4
20260508063946 50 0 0.0 0.0 0.04 0.87 0.48 95 1015.4
20260508063444 50 0 0.0 0.0 0.04 0.87 0.48 95 1015.3
20260508062944 50 0 0.0 0.0 0.03 0.86 0.47 95 1015.3
20260508062445 50 0 0.0 0.0 0.03 0.86 0.47 95 1015.3
20260508061944 50 0 0.0 0.0 0.02 0.85 0.46 95 1015.2
20260508061445 50 0 0.0 0.0 0.02 0.84 0.46 95 1015.3
20260508060944 49 0 0.0 0.0 0.01 0.83 0.45 95 1015.5
20260508055946 49 0 0.0 0.0 0.00 0.83 0.44 95 1015.4
20260508055445 49 0 0.0 0.0 0.00 0.83 0.44 95 1015.4